Flag for Germany Weather past 2 weeks in Achim, Lower Saxony, Germany

Now
72 °F

Partly sunny.


Feels Like: 77 °F
Forecast: 55 / 82 °F
Wind: 17 mph from West

Location: Bremen Airport

Current Time: Jul 6, 2015 at 1:39:20 PM

Latest Report: Jul 6, 2015 at 1:20 PM


Visibility: N/A

Pressure: 30.12 "Hg

Humidity: 47%

Dew point: 50 °F

Location of AchimLocation

Historic Weather in Achim — Graph

°F

Achim temperature yesterday

Maximum temperature yesterday: 77 °F (at 11:20 AM)
Minimum temperature yesterday: 64 °F (at 11:50 PM)
Average temperature yesterday: 72 °F

Past Weeks' High & Low Weather Summary

 TemperatureHumidityPressure
High97 °F (Jul 4, 3:20 PM)100% (Jun 22, 1:50 AM)30.27 "Hg (Jun 22, 1:50 AM)
Low46 °F (Jun 28, 5:50 AM)30% (Jul 2, 3:20 PM)29.65 "Hg (Jun 22, 7:50 PM)
Average66 °F71%30.05 "Hg
* Reported Jun 21 12:20 PM — Jul 6 12:20 PM, Achim, Weather by CustomWeather, © 2015

Note: Actual official high and low records may vary slightly from our data, if they occured in-between our weather recording intervals... More about our weather records

Advertising

Achim weather history for previous 24 hours

 ConditionsComfort  
Time TempWeatherWind HumidityBarometerVisibility
12:20 PM
Mon, Jul 6
72 °FPartly sunny.17 mph47%30.12 "HgN/A
11:50 AM72 °FScattered clouds.14 mph57%30.12 "HgN/A
11:20 AM70 °FPassing clouds.16 mph57%30.09 "HgN/A
10:50 AM68 °FPassing clouds.15 mph56%30.09 "HgN/A
10:20 AM68 °FPassing clouds.15 mph60%30.09 "HgN/A
9:50 AM68 °FScattered clouds.15 mph64%30.09 "HgN/A
9:20 AM66 °FScattered clouds.16 mph68%30.09 "HgN/A
8:50 AM64 °FScattered clouds.15 mph78%30.09 "HgN/A
8:20 AM63 °FScattered clouds.14 mph83%30.07 "HgN/A
7:50 AM63 °FPartly sunny.13 mph83%30.07 "HgN/A
7:20 AM61 °FScattered clouds.12 mph94%30.07 "HgN/A
6:50 AM61 °FPassing clouds.12 mph88%30.07 "HgN/A
6:20 AM59 °FPassing clouds.12 mph94%30.04 "HgN/A
5:20 AM59 °FClear.9 mph94%30.04 "Hg10 mi
4:50 AM59 °FClear.7 mph94%30.04 "Hg10 mi
4:20 AM59 °FClear.8 mph94%30.04 "Hg10 mi
3:50 AM59 °FClear.8 mph94%30.04 "Hg10 mi
3:20 AM61 °FClear.10 mph88%30.04 "Hg10 mi
2:50 AM61 °FClear.10 mph88%30.04 "Hg10 mi
2:20 AM63 °FPassing clouds.12 mph88%30.01 "HgN/A
1:50 AM63 °FClear.13 mph88%30.01 "Hg10 mi
1:20 AM63 °FClear.12 mph94%29.98 "Hg10 mi
12:50 AM64 °FClear.14 mph88%29.98 "Hg10 mi
12:20 AM64 °FClear.14 mph88%29.98 "Hg10 mi
11:50 PM
Sun, Jul 5
64 °FClear.12 mph88%29.95 "Hg10 mi
11:20 PM66 °FClear.10 mph88%29.95 "Hg10 mi
10:50 PM66 °FBroken clouds.6 mph94%29.95 "HgN/A
10:20 PM66 °FBroken clouds.7 mph94%29.95 "HgN/A
9:50 PM66 °FPartly sunny.9 mph94%29.92 "HgN/A
9:20 PM68 °FThundershowers. Broken clouds.12 mph94%29.92 "HgN/A
8:50 PM70 °FThunderstorms. Broken clouds.17 mph88%29.92 "Hg3 mi
8:20 PM72 °FMostly cloudy.5 mph88%29.89 "HgN/A
7:50 PM72 °FSprinkles. More clouds than sun.5 mph88%29.89 "HgN/A
7:20 PM72 °FBroken clouds.3 mph88%29.89 "HgN/A
6:50 PM72 °FBroken clouds.5 mph88%29.86 "HgN/A
6:20 PM73 °FBroken clouds.5 mph83%29.89 "HgN/A
5:50 PM73 °FThundershowers. Broken clouds.2 mph83%29.89 "HgN/A
5:20 PM73 °FScattered showers. Partly sunny.7 mph83%29.89 "HgN/A
4:50 PM75 °FThundershowers. Partly sunny.8 mph78%29.92 "HgN/A
4:20 PM73 °FSprinkles. Broken clouds.8 mph89%29.92 "HgN/A
3:50 PM73 °FThunderstorms. Broken clouds.7 mph83%29.92 "HgN/A
3:20 PM73 °FThunderstorms. Broken clouds.2 mph78%29.95 "HgN/A
2:50 PM73 °FScattered showers. Broken clouds.10 mph78%29.95 "HgN/A
2:20 PM72 °FSprinkles. Broken clouds.12 mph78%29.98 "HgN/A
1:50 PM73 °FSprinkles. Broken clouds.12 mph78%30.04 "Hg5 mi
1:20 PM77 °FSprinkles. Broken clouds.9 mph74%30.04 "Hg5 mi
Weather by CustomWeather, © 2015

See weather overviewHow to use our weather pages